HS3PIK-2 Weather Reports


time (UTC)temp
C
wind
direction
speed
KPH
gust
KPH
rain 1hr
cm
rain 24hr
cm
rain mn
cm
humidity
%
barometer
mb
20260505032146 30 0 0.0 0.0 0.00 0.00 0.00 76
20260505031616 30 0 0.0 0.0 0.00 0.00 0.00 76
20260505031048 30 0 0.0 0.0 0.00 0.00 0.00 76
20260505030521 30 0 0.0 0.0 0.00 0.00 0.00 77
20260505025956 29 0 0.0 0.0 0.00 0.00 0.00 75
20260505025431 29 0 0.0 0.0 0.00 0.00 0.00 80
20260505024901 29 0 0.0 0.0 0.00 0.00 0.00 79
20260505024339 29 0 0.0 0.0 0.00 0.00 0.00 80
20260505023814 28 0 0.0 0.0 0.00 0.00 0.00 79
20260505023247 28 0 0.0 0.0 0.00 0.00 0.00 80
20260505022719 28 0 0.0 0.0 0.00 0.00 0.00 81
20260505022152 28 0 0.0 0.0 0.00 0.00 0.00 82
20260505021624 28 0 0.0 0.0 0.00 0.00 0.00 82
20260505021057 28 0 0.0 0.0 0.00 0.00 0.00 83
20260505020532 28 0 0.0 0.0 0.00 0.00 0.00 84
20260505020005 28 0 0.0 0.0 0.00 0.00 0.00 83
20260505015440 27 0 0.0 0.0 0.00 0.00 0.00 85
20260505014912 27 0 0.0 0.0 0.00 0.00 0.00 85
20260505014345 27 0 0.0 0.0 0.00 0.00 0.00 85
20260505013820 27 0 0.0 0.0 0.00 0.00 0.00 85
20260505013252 27 0 0.0 0.0 0.00 0.00 0.00 85
20260505012723 27 0 0.0 0.0 0.00 0.00 0.00 85
20260505012152 27 0 0.0 0.0 0.00 0.00 0.00 85
20260505011625 27 0 0.0 0.0 0.00 0.00 0.00 86
20260505011057 27 0 0.0 0.0 0.00 0.00 0.00 86
20260505010533 27 0 0.0 0.0 0.00 0.00 0.00 86
20260505010007 27 0 0.0 0.0 0.00 0.00 0.00 86
20260505005443 27 0 0.0 0.0 0.00 0.00 0.00 88
20260505004915 27 0 0.0 0.0 0.00 0.00 0.00 89
20260505004350 27 0 0.0 0.0 0.00 0.00 0.00 89
20260505003818 26 0 0.0 0.0 0.00 0.00 0.00 89
20260505003250 26 0 0.0 0.0 0.00 0.00 0.00 89
20260505002725 26 0 0.0 0.0 0.00 0.00 0.00 90
20260505002155 26 0 0.0 0.0 0.00 0.00 0.00 90
20260505001628 26 0 0.0 0.0 0.00 0.00 0.00 91
20260505001106 26 0 0.0 0.0 0.00 0.00 0.00 92
20260505000536 25 0 0.0 0.0 0.00 0.00 0.00 92
20260505000011 25 0 0.0 0.0 0.00 0.00 0.00 94
20260504235448 25 0 0.0 0.0 0.00 0.00 0.00 94
20260504234923 25 0 0.0 0.0 0.00 0.00 0.00 94
20260504233718 24 0 0.0 0.0 0.00 0.00 0.00 95
20260504160335 28 0 0.0 0.0 0.00 0.00 0.00 84
20260504150900 30 0 0.0 0.0 0.00 0.00 0.00 78
20260504150328 30 0 0.0 0.0 0.00 0.00 0.00 77
20260504140904 30 0 0.0 0.0 0.00 0.00 0.00 76
20260504140625 30 0 0.0 0.0 0.00 0.00 0.00 76
20260504140213 30 0 0.0 0.0 0.00 0.00 0.00 77
20260504130814 31 0 0.0 0.0 0.00 0.00 0.00 76
20260504130800 30 0 0.0 0.0 0.00 0.00 0.00 77
20260504110244 29 0 0.0 0.0 0.00 0.00 0.00 80
20260504100230 30 0 0.0 0.0 0.00 0.00 0.00 78
20260504080752 29 0 0.0 0.0 0.00 0.00 0.00 74
20260504080222 29 0 0.0 0.0 0.00 0.00 0.00 75
20260504070205 32 0 0.0 0.0 0.00 0.00 0.00 73
20260504060148 37 0 0.0 0.0 0.00 0.00 0.00 55
20260504050721 36 0 0.0 0.0 0.00 0.00 0.00 57
20260504050151 36 0 0.0 0.0 0.00 0.00 0.00 57
20260504045626 36 0 0.0 0.0 0.00 0.00 0.00 58
20260504045101 35 0 0.0 0.0 0.00 0.00 0.00 59
20260504044531 35 0 0.0 0.0 0.00 0.00 0.00 58
20260504044001 35 0 0.0 0.0 0.00 0.00 0.00 61
20260504043735 35 0 0.0 0.0 0.00 0.00 0.00 59
20260504043207 35 0 0.0 0.0 0.00 0.00 0.00 61
20260504042643 35 0 0.0 0.0 0.00 0.00 0.00 59
20260504042115 35 0 0.0 0.0 0.00 0.00 0.00 59
20260504041553 35 0 0.0 0.0 0.00 0.00 0.00 60
20260504041020 35 0 0.0 0.0 0.00 0.00 0.00 59
20260504040453 35 0 0.0 0.0 0.00 0.00 0.00 61
20260504035925 35 0 0.0 0.0 0.00 0.00 0.00 62
20260504035358 35 0 0.0 0.0 0.00 0.00 0.00 63
20260504034830 34 0 0.0 0.0 0.00 0.00 0.00 62
20260504034303 34 0 0.0 0.0 0.00 0.00 0.00 62
20260504033733 34 0 0.0 0.0 0.00 0.00 0.00 62
20260504033208 33 0 0.0 0.0 0.00 0.00 0.00 64
20260504032638 33 0 0.0 0.0 0.00 0.00 0.00 65